Cosmos 1508 Rocket - Orbit

View from above orbital plane
View from above orbital plane
View from above satellite
View from above satellite

Ground track
Ground track

The orbit data is extracted from the following two-line orbital elements,

1 14484U 83111B   13137.83299156  .00024638  00000-0  55919-3 0  2104
2 14484 082.8309 343.2392 0304972 221.0861 270.0323 15.06371807512603
Epoch (UTC): 17 May 2013 19:59:30
Eccentricity: 0.0304972
inclination: 82.8309°
perigee height: 336 km
apogee height: 758 km
right ascension of ascending node: 343.2392°
argument of perigee: 221.0861°
revolutions per day: 15.06371807
mean anomaly at epoch: 270.0323°
orbit number at epoch: 51260

The dashed part of the orbit path shows where the satellite is in the earth's shadow,  

Developed and maintained by Chris Peat, Heavens-Above GmbH. Please read the updated FAQ before sending e-mail. Imprint. DLR